Home   Weather   Konya   Past weeks

Flag for Turkey Past Weather in Konya, Turkey — Yesterday and Last 2 Weeks

Now
70 °F

Sunny.


Feels Like: 70 °F
Forecast: 45 / 73 °F
Wind: 7 mph from East

Location: Konya Airport

Current Time: Apr 28, 2017 at 7:21:39 pm

Latest Report: Apr 28, 2017 at 6:50 pm


Visibility: 10 mi

Pressure: 30.04 "Hg (26.62 "Hg at 1041m altitude)

Humidity: 20%

Dew Point: 27 °F

Location of KonyaLocation

Past Weather in Konya — Graph

°F

Konya Temperature Yesterday

Maximum temperature yesterday: 68 °F (at 2:50 pm)
Minimum temperature yesterday: 45 °F (at 1:50 am)
Average temperature yesterday: 58 °F

High & Low Weather Summary for the Past Weeks

 TemperatureHumidityPressure
High73 °F (Apr 20, 2:50 pm)100% (Apr 14, 1:50 am)30.27 "Hg (Apr 14, 1:50 am)
Low32 °F (Apr 24, 1:50 am)16% (Apr 26, 3:50 pm)29.53 "Hg (Apr 23, 5:50 am)
Average53 °F52%30.01 "Hg
* Reported Apr 13 5:50 pm — Apr 28 5:50 pm, Konya, Weather by CustomWeather, © 2017

Note: Actual official high and low records may vary slightly from our data, if they occured in-between our weather recording intervals... More about our weather records

Advertising

Konya Weather History for the Previous 24 Hours

Scroll right to see more
 ConditionsComfort  
Time TempWeatherWind HumidityBarometerVisibility
5:50 pm
Fri, Apr 28
73 °FScattered clouds.5 mph17%30.04 "HgN/A
4:50 pm73 °FScattered clouds.6 mph17%30.04 "HgN/A
3:50 pm73 °FPassing clouds.7 mph19%30.04 "HgN/A
2:50 pm72 °FPassing clouds.7 mph20%30.07 "HgN/A
1:50 pm72 °FSunny.5 mph19%30.07 "Hg10 mi
12:50 pm70 °FPassing clouds.5 mph18%30.09 "HgN/A
11:50 am70 °FPassing clouds.6 mph21%30.09 "HgN/A
10:50 am66 °FPassing clouds.6 mph30%30.12 "HgN/A
9:50 am64 °FPassing clouds.5 mph30%30.12 "HgN/A
8:50 am59 °FSunny.2 mph31%30.12 "Hg10 mi
7:50 am52 °FPassing clouds.3 mph44%30.12 "HgN/A
6:50 am43 °FSunny.1 mph61%30.09 "Hg10 mi
5:50 am45 °FClear.2 mph49%30.09 "Hg10 mi
4:50 am48 °FClear.7 mph40%30.07 "Hg10 mi
3:50 am50 °FClear.5 mph37%30.07 "Hg10 mi
2:50 am54 °FClear.9 mph33%30.09 "Hg10 mi
1:50 am54 °FClear.9 mph33%30.09 "Hg10 mi
12:50 am54 °FClear.9 mph35%30.09 "Hg10 mi
11:50 pm
Thu, Apr 27
54 °FClear.8 mph35%30.09 "Hg10 mi
10:50 pm52 °FClear.7 mph38%30.09 "Hg10 mi
9:50 pm57 °FClear.6 mph31%30.09 "Hg10 mi
8:50 pm59 °FClear.7 mph31%30.09 "Hg10 mi
7:50 pm63 °FClear.5 mph25%30.07 "Hg10 mi
Weather by CustomWeather, © 2017

See weather overviewHow to use our weather pages